Location: Dover
(48.8500°N, 53.9833°W)
Time: 16:42:23
(UTC+00:00)

Cosmos 468 Rocket - Pass Details

Date: 14 November 2025
Orbit: 740 x 774 km, 74.0° (Epoch: 08 December)

Event Time Altitude Azimuth Distance (km) Brightness Sun altitude
Rises 21:59:12 0° 337° (NNW) 3,242 7.5 -20.1°
Reaches altitude 10° 22:01:36 10° 339° (NNW) 2,306 6.7 -20.5°
Maximum altitude 22:06:50 78° 66° (ENE) 780 3.8 -21.3°
Enters shadow 22:10:00 24° 150° (SSE) 1,523 5.3 -21.9°
